Startseite
Über Mich
AHP4
Galerie
Sehschlangen
Tourenbuch
Bookmarks
Elektronik
Bewertung
Geschichten
[Tagesmessung] [Jahreswerte] [Information]

Messwerte vom 19.11.2021

Die letzten Messwerte von 23:58:47 Uhr:
KategorieMesswert
Temperatur [°C]11
Luftdruck [mBar]1009
Sonneneinstrahlung0
Wind [km/h]4 aus West
Niederschlag [l/m²]0
rel.Luftfeucht.94.9%
CO2 [ppm]503

Diagramme
Messwerte vom 19.11.2021
Tagesaggregation
KategorieMinimumMaximumSchnittSumme
Temperatur [°C]91210.4217
Luftdruck [mBar]100710101008.9019
Sonneneinstrahlung21052.3737
Wind [km/h]18
rF [%]93.596.695.75
Niederschlag [l/m²]0
CO2 [ppm]401726527.4
Einordnung alsVegetationstag

Messungen an benachbarten Tagen: Zur Jahresaggregation 2021
Tabelle aller Messwerte
UhrzeitTemperatur [°C]Luftdruck [mBar]SonneWind [km/h]RichtungRegen [l/m²]rF [%]CO2 [ppm]
00:01:48 9 1008 0 5 W 0 96.6 688
00:04:46 9 1008 0 3 N 0 96.6 685
00:07:48 9 1008 0 3 S 0 96.6 682
00:10:50 9 1009 0 4 SW 0 96.6 685
00:13:49 9 1008 0 5 SW 0 96.6 692
00:16:46 9 1008 0 9 W 0 96.6 694
00:19:51 9 1008 0 2 SW 0 96.6 694
00:22:50 9 1009 0 13 SW 0 96.6 697
00:25:47 9 1008 0 8 S 0 96.6 693
00:28:49 9 1008 0 3 NW 0 96.6 688
00:31:46 9 1008 0 2 S 0 96.6 685
00:34:48 9 1009 0 4 SW 0 96.6 689
00:37:48 9 1008 0 10 W 0 96.6 693
00:40:49 9 1008 0 2 SW 0 96.6 695
00:43:47 9 1008 0 1 SO 0 96.6 695
00:46:46 9 1007 0 7 O 0 96.6 690
00:49:49 9 1008 0 5 S 0 96.6 694
00:52:47 9 1007 0 2 W 0 96.6 700
00:55:46 9 1008 0 4 W 0 96.6 697
00:58:50 9 1008 0 4 SW 0 96.6 686
01:01:48 9 1007 0 7 SW 0 96.6 683
01:04:46 9 1007 0 1 S 0 96.6 695
01:07:48 9 1008 0 2 W 0 96.6 698
01:10:49 9 1007 0 7 SO 0 96.6 692
01:13:45 9 1008 0 3 O 0 96.6 695
01:16:47 9 1008 0 1 W 0 96.6 692
01:19:50 9 1007 0 4 NW 0 96.6 696
01:22:51 9 1008 0 10 NW 0 96.6 698
01:25:48 9 1007 0 2 SW 0 96.6 695
01:28:48 9 1008 0 3 W 0 96.6 695
01:31:48 9 1007 0 7 SW 0 96.6 700
01:34:46 9 1008 0 4 NW 0 96.6 705
01:37:46 9 1008 0 3 W 0 96.6 701
01:40:46 9 1008 0 3 W 0 96.6 695
01:43:46 9 1007 0 9 S 0 96.6 692
01:46:47 9 1008 0 2 W 0 96.6 687
01:49:46 9 1008 0 4 N 0 96.6 697
01:52:47 9 1008 0 2 SO 0 96.6 697
01:55:48 9 1008 0 2 NW 0 96.6 700
01:58:46 9 1008 0 4 NO 0 96.6 705
02:01:48 9 1009 0 8 NO 0 96.6 713
02:04:48 9 1009 0 1 NW 0 96.6 715
02:07:45 9 1008 0 7 W 0 96.6 717
02:10:49 9 1008 0 2 W 0 96.6 715
02:13:49 9 1008 0 9 W 0 96.6 697
02:16:48 9 1008 0 4 N 0 96.6 700
02:19:51 9 1008 0 8 SW 0 96.6 698
02:22:47 9 1009 0 7 W 0 96.6 710
02:25:49 9 1008 0 2 SW 0 96.6 709
02:28:48 9 1009 0 5 N 0 96.6 705
02:31:49 9 1007 0 6 SW 0 96.6 708
02:34:47 9 1008 0 8 NO 0 96.6 718
02:37:48 9 1008 0 10 W 0 96.6 726
02:40:47 9 1009 0 3 W 0 96.6 723
02:43:49 9 1008 0 6 SW 0 96.6 718
02:46:49 9 1008 0 9 S 0 96.6 720
02:49:49 9 1008 0 2 NW 0 96.6 714
02:52:48 9 1008 0 6 W 0 96.6 707
02:55:45 9 1009 0 7 W 0 96.6 700
02:58:48 9 1008 0 13 SW 0 96.6 702
03:01:49 9 1008 0 9 W 0 96.6 702
03:04:48 9 1008 0 9 SW 0 96.6 710
03:07:50 9 1008 0 10 NW 0 96.6 705
03:10:47 9 1008 0 5 N 0 96.6 708
03:13:47 9 1008 0 7 S 0 96.6 706
03:16:48 9 1008 0 2 S 0 96.6 712
03:19:46 9 1008 0 7 SW 0 96.6 709
03:22:49 9 1009 0 3 S 0 96.6 708
03:25:51 9 1009 0 9 SW 0 96.6 706
03:28:47 9 1008 0 3 NO 0 96.6 705
03:31:46 9 1008 0 5 W 0 96.6 709
03:34:50 9 1008 0 3 W 0 96.6 705
03:37:49 9 1008 0 8 S 0 96.6 703
03:40:48 9 1008 0 6 W 0 96.6 708
03:43:48 9 1009 0 7 NW 0 96.6 709
03:46:46 9 1009 0 17 SW 0 96.6 706
03:49:46 9 1008 0 4 NO 0 96.6 700
03:52:47 9 1008 0 7 SW 0 96.6 705
03:55:46 9 1008 0 6 NO 0 96.6 714
03:58:46 9 1007 0 1 S 0 96.6 715
04:01:47 9 1007 0 8 SW 0 96.6 715
04:04:50 9 1009 0 5 SW 0 96.6 717
04:07:48 9 1009 0 2 SW 0 96.6 714
04:10:47 9 1009 0 2 SO 0 96.6 712
04:13:46 9 1007 0 3 W 0 96.6 710
04:16:47 9 1008 0 5 SW 0 96.6 712
04:19:47 9 1008 0 6 W 0 96.6 715
04:22:47 9 1008 0 2 SW 0 96.6 709
04:25:48 9 1008 0 2 SW 0 96.6 717
04:28:46 10 1007 0 4 W 0 96.6 712
04:31:48 10 1007 0 3 NO 0 96.6 713
04:34:46 10 1008 0 6 S 0 96.6 706
04:37:47 10 1008 0 4 W 0 96.6 718
04:40:47 10 1007 0 4 SW 0 96.6 725
04:43:46 10 1007 0 1 W 0 96.6 718
04:46:47 10 1007 0 6 SW 0 96.6 723
04:49:45 10 1008 0 3 0 96.6 721
04:52:48 10 1008 0 2 SW 0 96.6 718
04:55:47 10 1008 0 5 SO 0 96.6 723
04:58:51 10 1008 0 3 SO 0 96.6 721
05:01:50 10 1007 0 2 SW 0 96.6 715
05:04:47 10 1007 0 5 W 0 96.6 706
05:07:50 10 1007 0 1 NW 0 96.6 712
05:10:48 10 1009 0 1 W 0 96.6 539
05:13:47 10 1008 0 15 O 0 96.6 543
05:16:50 10 1008 0 2 SW 0 96.6 539
05:19:50 10 1007 0 6 NW 0 96.6 533
05:22:47 10 1007 0 5 NW 0 96.6 536
05:25:46 10 1007 0 16 S 0 96.6 538
05:28:47 10 1009 0 6 SO 0 96.6 539
05:31:47 10 1008 0 7 SO 0 96.6 545
05:34:45 10 1009 0 4 S 0 96.6 550
05:37:47 10 1008 0 6 W 0 96.6 541
05:40:45 10 1008 0 4 NO 0 96.6 539
05:43:47 10 1008 0 2 W 0 96.6 541
05:46:44 10 1008 0 5 W 0 96.6 547
05:49:47 10 1008 0 9 W 0 96.6 546
05:52:47 10 1008 0 4 S 0 96.6 538
05:55:46 10 1008 0 0 NW 0 96.6 544
05:58:47 10 1008 0 4 SW 0 96.6 553
06:01:47 10 1008 0 5 NW 0 96.6 550
06:04:45 10 1008 0 2 W 0 96.6 548
06:07:49 10 1008 0 5 S 0 96.6 545
06:10:45 10 1008 0 5 W 0 96.6 545
06:13:48 10 1008 0 2 W 0 96.6 545
06:16:46 10 1008 0 3 SO 0 96.6 544
06:19:49 10 1008 0 10 SO 0 96.6 547
06:22:47 10 1008 0 9 SW 0 96.6 544
06:25:46 10 1008 0 4 W 0 96.6 551
06:28:47 10 1007 0 4 W 0 96.6 550
06:31:45 10 1008 0 6 W 0 96.6 547
06:34:47 10 1008 0 9 SW 0 96.6 545
06:37:46 10 1009 0 4 W 0 96.6 548
06:40:44 10 1007 0 7 W 0 96.6 545
06:43:48 10 1009 0 7 SW 0 96.6 547
06:46:47 10 1008 0 3 SW 0 96.6 536
06:49:47 10 1008 0 3 SW 0 96.6 536
06:52:48 10 1008 0 13 S 0 96.6 532
06:55:48 10 1008 0 2 SW 0 96.6 533
06:58:48 10 1008 0 18 SW 0 96.6 533
07:01:48 10 1008 0 9 SW 0 96.6 542
07:04:48 10 1008 0 8 NW 0 96.6 543
07:07:49 10 1008 0 6 W 0 96.6 538
07:10:47 10 1008 0 11 W 0 96.6 533
07:13:48 10 1008 0 7 W 0 96.6 530
07:16:49 10 1008 0 3 SW 0 96.6 521
07:19:48 10 1008 7 8 W 0 96.6 407
07:22:46 10 1009 0 7 W 0 96.6 404
07:25:48 10 1009 0 6 SW 0 96.6 407
07:28:47 10 1009 0 17 W 0 96.6 405
07:31:48 10 1009 4 8 SO 0 96.6 404
07:34:45 10 1008 6 3 N 0 96.6 404
07:37:47 10 1009 7 5 SW 0 96.6 407
07:40:47 10 1009 9 3 SO 0 96.6 407
07:43:47 10 1008 12 3 W 0 96.6 401
07:46:49 10 1009 18 3 SO 0 96.6 407
07:49:49 10 1009 21 3 NW 0 96.6 404
07:52:47 10 1009 25 6 S 0 96.6 404
07:55:46 10 1009 30 2 W 0 96.6 404
07:58:47 10 1009 45 9 SW 0 96.6 406
08:01:48 10 1010 51 2 S 0 96.6 407
08:04:49 10 1008 62 16 S 0 96.6 404
08:07:49 10 1008 79 4 SW 0 96.6 407
08:10:50 10 1009 86 4 NW 0 96.6 404
08:13:48 10 1009 86 0 W 0 96.6 404
08:16:48 10 1008 92 9 W 0 96.6 407
08:19:50 10 1009 103 11 SW 0 96.6 407
08:22:49 10 1009 96 3 SW 0 96.6 404
08:25:50 10 1009 104 5 NW 0 96.6 406
08:28:51 10 1009 107 3 NW 0 96.6 404
08:31:48 10 1009 115 2 SW 0 96.6 407
08:34:49 10 1009 111 7 W 0 96.6 405
08:37:50 10 1009 103 1 NW 0 96.6 407
08:40:51 10 1009 116 2 SW 0 96.6 404
08:43:50 10 1009 101 5 SO 0 96.6 407
08:46:49 10 1009 102 3 O 0 96.6 407
08:49:49 10 1009 112 7 SW 0 96.6 404
08:52:48 10 1009 125 1 W 0 96.6 407
08:55:52 10 1009 125 5 SW 0 96.6 407
08:58:50 10 1010 136 5 W 0 96.6 401
09:01:49 10 1009 133 8 S 0 96.6 404
09:04:49 10 1009 143 13 SW 0 96.6 405
09:07:51 10 1009 144 6 NW 0 96.6 405
09:10:49 10 1009 139 7 W 0 96.6 406
09:13:47 10 1010 144 3 SW 0 96.6 407
09:16:50 10 1010 146 7 SW 0 96.6 407
09:19:48 10 1009 147 3 NO 0 96.6 406
09:22:49 10 1009 152 6 NW 0 96.6 403
09:25:49 10 1009 152 14 SW 0 96.6 407
09:28:47 10 1009 158 5 S 0 96.6 407
09:31:48 10 1009 157 12 N 0 96.6 404
09:34:47 10 1009 158 3 W 0 96.6 407
09:37:47 10 1009 154 3 SO 0 96.6 404
09:40:48 11 1009 162 1 W 0 96.6 407
09:43:48 11 1009 151 4 S 0 96.6 407
09:46:46 11 1010 146 4 W 0 96.6 404
09:49:48 11 1009 154 6 W 0 96.6 404
09:52:51 11 1009 168 6 SW 0 96.6 404
09:55:50 11 1009 163 6 SO 0 96.6 407
09:58:49 11 1009 153 4 S 0 96.6 406
10:01:51 11 1009 159 4 W 0 96.6 404
10:04:48 11 1010 145 2 SW 0 96.6 404
10:07:47 11 1009 150 4 NO 0 96.6 404
10:10:49 11 1009 149 3 SO 0 96.6 407
10:13:47 11 1010 142 1 SW 0 96.6 409
10:16:46 11 1009 152 13 O 0 96.6 415
10:19:46 11 1010 143 2 S 0 96.6 421
10:22:48 11 1010 150 5 NW 0 96.6 424
10:25:48 11 1009 148 10 W 0 96.6 424
10:28:48 11 1009 148 4 S 0 96.6 427
10:31:46 11 1010 158 2 O 0 96.6 430
10:34:47 11 1009 146 6 W 0 96.6 430
10:37:47 11 1009 145 4 O 0 96.6 427
10:40:49 11 1010 141 4 SW 0 96.6 424
10:43:48 10 1010 136 4 W 0 96.6 427
10:46:47 10 1010 142 4 SW 0 96.6 433
10:49:49 10 1010 136 8 W 0 96.6 436
10:52:48 10 1010 135 14 SW 0 96.6 436
10:55:49 10 1009 142 2 SO 0 96.6 442
10:58:48 10 1009 146 6 W 0 96.6 442
11:01:48 10 1010 134 3 SW 0 96.6 453
11:04:47 10 1010 149 7 W 0 96.6 451
11:07:47 10 1009 157 6 S 0 96.6 457
11:10:49 11 1009 155 4 NW 0 96.6 456
11:13:48 11 1009 164 7 SW 0 96.6 451
11:16:50 11 1009 148 8 SW 0 96.6 448
11:19:46 11 1009 149 7 W 0 96.6 443
11:22:50 11 1010 163 2 SW 0 96.6 445
11:25:46 11 1010 167 4 N 0 96.6 448
11:28:47 11 1010 169 3 W 0 96.6 454
11:31:48 11 1009 181 13 W 0 96.6 451
11:34:49 11 1009 178 10 NW 0 96.6 451
11:37:49 11 1009 184 12 SW 0 96.6 419
11:40:50 11 1009 189 6 S 0 96.6 407
11:43:48 11 1009 190 4 N 0 96.6 407
11:46:49 11 1009 194 8 S 0 96.6 431
11:49:47 11 1009 185 6 SW 0 96.6 429
11:52:50 11 1009 168 3 SW 0 96.6 448
11:55:46 11 1009 172 4 S 0 96.6 451
11:58:48 11 1009 154 2 N 0 96.6 458
12:01:50 11 1009 155 2 SW 0 96.6 466
12:04:48 11 1009 191 7 SW 0 96.6 468
12:07:49 11 1010 203 3 W 0 96.6 465
12:10:48 11 1009 196 8 S 0 96.6 471
12:13:50 11 1009 196 7 SW 0 96.6 478
12:16:50 11 1010 191 6 NW 0 96.6 477
12:19:48 11 1009 184 6 SO 0 96.6 475
12:22:50 11 1009 177 6 SW 0 96.6 480
12:25:49 11 1009 188 7 NW 0 96.6 477
12:28:49 11 1009 149 8 SW 0 96.6 477
12:31:47 11 1009 169 7 W 0 96.6 477
12:34:51 11 1009 166 12 SW 0 96.6 483
12:37:48 11 1009 175 4 S 0 96.6 486
12:40:50 11 1009 172 11 SW 0 96.6 489
12:43:48 11 1009 161 8 W 0 96.6 486
12:46:47 11 1009 159 4 W 0 96.6 480
12:49:48 11 1009 185 4 NW 0 96.6 483
12:52:47 11 1010 166 1 W 0 96.6 492
12:55:48 11 1009 159 5 S 0 96.6 501
12:58:47 11 1009 177 5 S 0 96.6 407
13:01:50 11 1010 206 3 S 0 96.6 405
13:04:50 12 1010 207 7 W 0 96.6 444
13:07:47 12 1009 210 9 SO 0 96.6 460
13:10:47 12 1010 204 11 W 0 96.6 451
13:13:47 12 1009 203 7 W 0 96.6 451
13:16:48 12 1010 196 11 SW 0 96.5 454
13:19:50 12 1009 192 5 W 0 95.6 460
13:22:49 12 1009 202 14 W 0 95.5 459
13:25:50 12 1009 203 13 W 0 95.6 459
13:28:48 12 1009 207 8 SW 0 95.4 451
13:31:49 12 1009 201 6 W 0 95.1 456
13:34:48 12 1009 197 3 SW 0 95.1 456
13:37:48 12 1010 196 1 S 0 95.1 459
13:40:49 12 1009 198 10 W 0 95 466
13:43:49 12 1009 193 9 NW 0 94.9 471
13:46:48 12 1009 186 7 SW 0 94.5 472
13:49:47 12 1009 185 4 W 0 94.6 474
13:52:47 12 1010 169 3 W 0 94.6 477
13:55:47 12 1009 165 7 W 0 94.7 480
13:58:49 12 1009 183 9 W 0 94.9 493
14:01:49 12 1010 190 9 W 0 94.9 495
14:04:51 12 1009 194 9 N 0 95 495
14:07:47 12 1009 197 8 SW 0 95.1 495
14:10:48 12 1009 195 8 SO 0 94.9 495
14:13:50 12 1010 192 10 NW 0 94.4 495
14:16:49 12 1009 192 6 SW 0 94 497
14:19:48 12 1009 188 8 NW 0 94.3 503
14:22:49 12 1009 187 5 SW 0 94 500
14:25:47 12 1009 193 5 W 0 93.5 498
14:28:48 12 1009 194 11 N 0 93.6 495
14:31:49 12 1009 187 4 NW 0 93.7 498
14:34:47 12 1009 182 4 SW 0 93.8 501
14:37:50 12 1009 174 5 SW 0 93.9 507
14:40:48 12 1009 165 6 W 0 93.7 512
14:43:48 12 1009 170 3 W 0 93.7 513
14:46:46 12 1009 164 7 0 93.7 515
14:49:48 12 1009 165 5 SW 0 93.9 515
14:52:47 12 1009 163 6 SW 0 93.7 517
14:55:50 12 1009 171 5 S 0 93.8 518
14:58:48 12 1009 160 9 S 0 93.8 518
15:01:48 12 1009 143 7 SO 0 93.6 521
15:04:49 12 1009 144 13 SW 0 93.6 515
15:07:48 12 1009 144 9 SW 0 93.5 527
15:10:50 12 1009 145 4 W 0 93.5 524
15:13:49 12 1009 132 3 NW 0 93.8 527
15:16:48 12 1009 126 5 W 0 93.8 530
15:19:48 12 1009 119 11 S 0 94.1 535
15:22:48 12 1009 121 10 NW 0 94.2 536
15:25:47 11 1009 108 1 NO 0 94.2 542
15:28:49 11 1009 109 0 NW 0 94.2 548
15:31:49 11 1009 98 5 SW 0 94.3 554
15:34:45 11 1009 91 3 S 0 94.3 554
15:37:47 11 1009 79 7 W 0 94.4 568
15:40:48 11 1010 75 8 SW 0 94.6 570
15:43:48 11 1009 72 2 NW 0 94.7 565
15:46:47 11 1009 76 6 SO 0 94.7 560
15:49:46 11 1009 76 3 SO 0 94.7 560
15:52:48 11 1009 72 3 NO 0 94.7 568
15:55:51 11 1009 68 8 SW 0 94.8 568
15:58:46 11 1010 62 2 SW 0 94.7 574
16:01:47 11 1009 62 7 W 0 94.6 573
16:04:47 11 1010 61 10 W 0 94.7 577
16:07:47 11 1010 56 8 S 0 94.8 580
16:10:47 11 1009 55 4 W 0 94.8 580
16:13:48 11 1009 53 2 SW 0 94.9 574
16:16:48 11 1009 50 1 S 0 95 574
16:19:48 11 1009 42 4 W 0 95.1 580
16:22:48 11 1010 32 1 W 0 95.1 577
16:25:48 11 1010 29 5 W 0 95.2 571
16:28:50 11 1009 19 5 SO 0 95.2 571
16:31:49 11 1009 13 6 NW 0 95.2 563
16:34:47 11 1009 8 7 W 0 95.3 565
16:37:45 11 1009 6 6 W 0 95.3 574
16:40:46 11 1009 4 4 O 0 95.3 577
16:43:49 11 1009 3 7 SW 0 95.1 577
16:46:46 11 1009 0 5 W 0 95 578
16:49:45 11 1009 0 2 S 0 94.9 582
16:52:49 11 1009 0 7 SW 0 94.7 586
16:55:48 11 1009 0 8 SW 0 94.6 589
16:58:50 11 1009 0 6 NW 0 94.3 590
17:01:46 11 1010 0 9 SW 0 94.2 597
17:04:46 11 1009 0 11 W 0 94.1 595
17:07:46 11 1009 0 9 S 0 94.1 601
17:10:50 11 1009 0 6 NW 0 94.1 604
17:13:46 11 1009 0 8 N 0 94.2 597
17:16:48 11 1009 0 2 NW 0 94.2 598
17:19:47 11 1009 0 4 W 0 94.3 597
17:22:46 11 1010 0 3 W 0 94.2 600
17:25:45 11 1009 0 3 W 0 94.1 597
17:28:46 11 1010 0 2 SW 0 94.2 601
17:31:49 11 1009 0 5 SO 0 94.2 599
17:34:47 11 1009 0 8 W 0 94.2 608
17:37:48 11 1009 0 5 SW 0 94.3 606
17:40:45 11 1009 0 4 SO 0 94.4 612
17:43:48 11 1009 0 8 NO 0 94.4 612
17:46:48 11 1009 0 5 SW 0 94.3 613
17:49:46 11 1010 0 8 NW 0 94.1 612
17:52:45 11 1009 0 4 S 0 94.1 606
17:55:48 11 1009 0 10 SO 0 93.9 612
17:58:48 11 1009 0 4 S 0 93.9 609
18:01:48 11 1009 0 3 NW 0 93.8 603
18:04:48 11 1009 0 2 SW 0 93.9 570
18:07:49 11 1009 0 1 N 0 93.9 539
18:10:46 11 1009 0 2 W 0 94.2 551
18:13:48 11 1009 0 2 W 0 94.6 570
18:16:45 11 1009 0 2 W 0 94.7 577
18:19:47 11 1009 0 2 NW 0 94.8 563
18:22:49 11 1010 0 1 SO 0 94.9 560
18:25:49 11 1009 0 6 NW 0 95 558
18:28:48 11 1010 0 3 NW 0 94.9 552
18:31:46 11 1009 0 2 W 0 95 550
18:34:46 11 1009 0 1 W 0 95 556
18:37:47 11 1009 0 5 W 0 95.1 551
18:40:50 11 1009 0 2 SO 0 95.2 554
18:43:47 11 1010 0 2 S 0 95.2 548
18:46:50 11 1009 0 1 NW 0 95.2 545
18:49:50 11 1009 0 2 W 0 95.2 536
18:52:47 11 1009 0 1 W 0 95.2 534
18:55:48 11 1010 0 3 NW 0 95.1 530
18:58:46 11 1009 3 5 SW 0 95.1 532
19:01:47 11 1009 3 6 O 0 95.1 407
19:04:45 11 1009 0 4 SO 0 95.1 404
19:07:47 11 1009 0 7 W 0 95.2 407
19:10:47 11 1009 0 5 W 0 95.3 406
19:13:46 10 1010 0 1 S 0 95.4 404
19:16:47 10 1009 0 4 W 0 95.5 406
19:19:48 10 1009 0 2 S 0 95.7 407
19:22:50 10 1010 0 2 W 0 95.9 407
19:25:48 10 1009 0 3 SW 0 96 405
19:28:47 10 1009 0 8 W 0 96.1 407
19:31:46 10 1009 0 5 S 0 96.1 407
19:34:49 10 1009 0 3 NW 0 96.2 404
19:37:46 10 1010 0 3 W 0 96.1 407
19:40:49 10 1009 0 5 SW 0 96.1 404
19:43:45 10 1009 0 4 S 0 96.1 407
19:46:48 11 1009 0 2 NW 0 96 406
19:49:47 11 1009 0 4 SW 0 95.9 406
19:55:47 11 1009 0 4 W 0 95.8 404
19:58:47 11 1009 0 6 W 0 95.7 407
20:01:48 11 1009 0 6 W 0 95.6 407
20:04:48 11 1010 0 2 S 0 95.4 404
20:07:48 11 1009 0 10 S 0 95.2 407
20:10:48 11 1010 0 4 SW 0 95.1 407
20:13:46 11 1010 0 4 W 0 94.8 404
20:16:48 11 1009 0 3 W 0 94.7 405
20:19:48 11 1010 0 6 NW 0 94.6 404
20:22:46 11 1009 0 3 SO 0 94.6 407
20:25:47 11 1009 0 1 NW 0 94.6 407
20:28:45 11 1010 0 3 W 0 94.5 406
20:31:46 11 1010 0 4 W 0 94.6 406
20:34:46 11 1010 0 8 W 0 94.7 407
20:37:48 11 1009 0 6 SW 0 94.7 406
20:40:47 11 1010 0 4 W 0 94.8 404
20:43:47 11 1010 0 5 W 0 94.8 407
20:46:46 11 1010 0 9 SW 0 94.8 404
20:49:46 11 1009 0 5 W 0 94.8 406
20:52:46 11 1010 0 8 SW 0 94.7 406
20:55:47 11 1010 0 7 S 0 94.6 401
20:58:47 11 1009 0 7 NW 0 94.5 407
21:01:46 11 1010 0 3 W 0 94.4 407
21:04:47 11 1009 0 7 NW 0 94.3 401
21:07:46 11 1010 0 4 SW 0 94.1 404
21:10:47 11 1010 0 9 SW 0 94.1 406
21:13:46 11 1010 0 5 W 0 94 403
21:16:46 11 1009 0 6 S 0 93.9 404
21:19:46 11 1010 0 3 W 0 93.9 407
21:22:48 11 1010 0 4 NW 0 93.9 404
21:25:48 11 1010 0 5 SW 0 93.9 404
21:28:46 11 1010 0 4 N 0 94 410
21:31:46 10 1010 0 8 W 0 94.3 407
21:34:46 10 1010 0 7 NW 0 94.4 415
21:37:44 10 1010 0 6 N 0 94.6 416
21:40:46 11 1010 0 4 SW 0 94.6 424
21:43:50 11 1010 0 8 SW 0 94.5 424
21:46:46 11 1010 0 12 SW 0 94.4 427
21:49:48 11 1009 0 6 NW 0 94.3 436
21:52:47 11 1010 0 6 S 0 94.2 442
21:55:48 11 1010 0 10 NW 0 94.2 442
21:58:48 11 1009 0 7 SW 0 94.1 440
22:01:47 11 1009 0 7 SW 0 94 451
22:04:50 11 1010 0 6 SW 0 93.9 448
22:07:46 11 1010 0 6 SW 0 93.9 447
22:10:48 11 1009 0 4 SO 0 93.8 454
22:13:47 11 1010 0 6 W 0 93.8 462
22:16:49 11 1009 0 2 SW 0 94 462
22:19:48 11 1010 0 8 SW 0 94 459
22:22:47 11 1010 0 11 SW 0 94 456
22:25:50 11 1009 0 10 NW 0 94.1 463
22:28:47 11 1010 0 3 S 0 94.2 466
22:31:49 10 1010 0 4 NW 0 94.2 468
22:34:48 10 1010 0 3 NW 0 94.4 471
22:37:48 10 1010 0 6 NO 0 94.5 468
22:40:48 10 1010 0 8 SW 0 94.6 463
22:43:45 10 1010 0 6 NO 0 94.7 454
22:46:47 10 1010 0 6 SO 0 94.8 456
22:49:46 10 1010 0 5 S 0 94.9 460
22:52:48 10 1010 0 2 W 0 95 471
22:55:46 10 1009 0 2 SW 0 95.1 474
22:58:46 10 1010 0 7 W 0 95.3 478
23:01:48 10 1010 0 4 SW 0 95.4 480
23:04:45 10 1010 0 3 W 0 95.5 474
23:07:47 10 1010 0 9 NW 0 95.6 477
23:10:50 10 1010 0 9 W 0 95.7 480
23:13:47 10 1010 0 4 SW 0 95.8 491
23:16:48 10 1010 0 5 S 0 95.8 483
23:19:48 10 1010 0 4 SW 0 95.8 489
23:22:47 10 1010 0 8 W 0 95.8 492
23:25:49 10 1010 0 9 S 0 95.8 492
23:28:47 11 1010 0 5 SW 0 95.8 490
23:31:49 11 1010 0 3 NW 0 95.7 490
23:34:48 11 1010 0 16 S 0 95.5 492
23:37:48 11 1010 0 8 SW 0 95.2 488
23:40:47 11 1010 0 11 NW 0 95 490
23:43:47 11 1010 0 6 SW 0 94.8 476
23:46:45 11 1010 0 5 W 0 94.7 494
23:49:47 11 1010 0 8 W 0 94.7 495
23:52:48 11 1010 0 8 W 0 94.7 501
23:55:46 11 1010 0 11 W 0 94.7 495
23:58:47 11 1009 0 4 W 0 94.9 503

Letzte Änderung : 04-Jan-2022
Copyright Jens Köhler, Wolfsburg, Obere Dorfstraße 10d